Location: Goudex
(43.3760°N, 0.9543°E)
Time: 13:05:28
(UTC+00:00)

Cosmos 2322 Rocket - Pass Details

Date: 20 November 2019
Orbit: 832 x 851 km, 71.0° (Epoch: 08 December)

Event Time Altitude Azimuth Distance (km) Brightness Sun altitude
Exits shadow 06:01:14 11° 303° (WNW) 2,369 3.9 -9.9°
Maximum altitude 06:04:55 21° 260° (W) 1,832 3.5 -9.3°
Drops below altitude 10° 06:08:59 10° 214° (SSW) 2,466 4.5 -8.6°
Sets 06:12:00 0° 198° (SSW) 3,399 5.4 -8.1°
